Location: *
(58.4167°N, 22.5000°E)
Time: 11:19:06
(UTC+00:00)

Cosmos 1605 Rocket - Pass Details

Date: 22 September 2019
Orbit: 945 x 1005 km, 82.9° (Epoch: 17 October)

Event Time Altitude Azimuth Distance (km) Brightness Sun altitude
Rises 18:45:32 0° 346° (NNW) 3,749 7.8 -17.6°
Reaches altitude 10° 18:48:14 10° 353° (N) 2,793 6.9 -17.9°
Maximum altitude 18:54:23 45° 65° (ENE) 1,338 4.5 -18.6°
Enters shadow 18:56:54 31° 116° (ESE) 1,674 4.7 -18.9°
